CZ-6A DEB, 60765

Orbit data source: Space-Track

CZ-6A DEB, 60765 is space debris in LEO originally from a launch on Tue, 06 Aug 2024 UTC launched from the Taiyaun Space Center, China (TSC). Debris objects in space refer to the collection of defunct objects orbiting the Earth. Examples of debris include non-operational satellites, rocket bodies, and fragments generated from explosions, collisions, or faulty payload assembly.

Loading next visibility...
Identifier
60765, 2024-140EQ
Orbit
LEO
Country
Flag of CNCN / PRC
Related business
Manufacturer
SAST
Mission
Spacecraft
Bus & Motor
Unknown
Mass
Unknown
Launch date (UTC)
2024-08-06 (2 years ago)
Launch vehicle
Unknown
Launch site
Taiyaun Space Center, China (TSC)
Object type
Payload
Rocket body
Debris
Shape & HBR
Unknown shape, 0.2 m
Radar Cross Section
Medium (>0.1 m² and <1 m²)

Expand to show TLE details & history
Last TLE update: 9 hours ago

TLE from 9 hours ago
0 CZ-6A DEB
1 60765U 24140EQ  26171.48472344  .00001644  00000-0  37305-3 0  9994
2 60765  88.7689 250.8129 0101565 200.0253 159.6959 14.52435346 98142
Epoch: 2026-06-20T11:38Z
TLE epoch observation values (Epoch: 2026-06-20T11:38:00.105Z)
Latitude
0.00004°
Longitude
167.61379°
Altitude
788.497 km
Speed
7.424 km/s
True Right ascension
16h 43m 15s
True Declination
0° 00' 00"
Sunlit
Object was in full shadow at epoch
Visualization orbit readout
Latitude
Unknown
Longitude
Unknown
Altitude
Unknown
Speed
Unknown
Apparent Right ascension
Unknown
Apparent Declination
Unknown
Sunlit
N/A
Visualization observer readout
Local Sidereal Time
07:19:11
Azimuth
Unknown
Elevation
Unknown
Doppler factor
Unknown
Orbital elements
Apogee altitude
786.649 km
Perigee altitude
642.574 km
Semi-major axis
7,092.748 km
Eccentricity
0.01016
Inclination
88.7689°
RAAN
250.8129°
Arg. of periapsis
200.0253°
True anomaly
160.095°
Mean anomaly
159.6959°
Eccentric anomaly
159.89592°
Mean motion
3.63347 °/min
Orbital period
99.08 mins
BSTAR
0.00037305
Loading maneuver chart data...
Computing Atmospheric mass density...
Loading historical data...
Loading historical data...
Loading historical data...
Loading historical data...
Loading historical data...
Loading historical data...
Loading historical data...

Documentation

Showing up to 5 results
|